Location: Crescent
(42.8242°N, 73.7329°W)
Time: 08:17:33
(UTC+00:00)

Vanguard 1 Rocket - Pass Details

Date: 21 February 2026
Orbit: 653 x 4214 km, 34.3° (Epoch: 12 March)

Event Time Altitude Azimuth Distance (km) Brightness Sun altitude
Rises 20:01:31 0° 263° (W) 4,626 11.8 23.8°
Reaches altitude 10° 20:04:01 10° 260° (W) 3,966 11.8 23.5°
Maximum altitude 20:15:03 60° 183° (S) 2,869 10.6 21.9°
Drops below altitude 10° 20:35:57 10° 111° (ESE) 7,021 11.6 18.9°
Sets 20:42:14 0° 109° (ESE) 8,311 11.9 17.9°
